Weather History for Joliet, IL

Change the Weather History Date:

Wednesday, August 7, 2013

  Actual Average (KLOT) Record (KLOT)
Temperature  
Mean Temperature 78 °F 73 °F  
Max Temperature 88 °F 83 °F 94 °F (2001)
Min Temperature 68 °F 64 °F 51 °F (2004)
Degree Days  
Heating Degree Days 0 0  
Month to date heating degree days 0  
Since 1 June heating degree days 35  
Since 1 July heating degree days 2  
Cooling Degree Days 13 8  
Month to date cooling degree days 56  
Year to date cooling degree days 576  
Since 1 June cooling degree days 518  
Growing Degree Days 28 (Base 50)    
Moisture  
Dew Point 68 °F    
Average Humidity 76    
Maximum Humidity 95    
Minimum Humidity 49    
Precipitation  
Precipitation 0.16 in 0.14 in 0.35 in (2009)
Month to date precipitation 0.92  
Year to date precipitation 24.67  
Sea Level Pressure  
Sea Level Pressure 29.86 in    
Wind  
Wind Speed 4 mph (WSW)    
Max Wind Speed 15 mph    
Max Gust Speed 20 mph    
Visibility 8 miles    
Events Rain , Thunderstorm    
T = Trace of Precipitation, MM = Missing Value Source: NWS Daily Summary

Daily Weather History Graph

Daily Weather History Graph

Search for Another Location

Airport:

Trip Planner

Search our weather history database for the weather conditions in past years. The results will help you decide how hot, cold, wet, or windy it might be!

Date:

Astronomy

Aug. 07, 2013 Rise Set
Actual Time 5:53 AM CDT 8:02 PM CDT
Civil Twilight 5:23 AM CDT 8:33 PM CDT
Nautical Twilight 4:45 AM CDT 9:10 PM CDT
Astronomical Twilight 4:04 AM CDT 9:51 PM CDT
Moon 6:43 AM CDT (8/7) 8:07 PM CDT (8/7)
Length of Visible Light 15h 10m
Length of Day
14h 08m
New Moon, 1% of the Moon is Illuminated
Aug 7
New Moon
Aug 14
First Quarter
Aug 20
Full
Aug 28
Last Quarter
Sep 5
New

Hourly Weather History & Observations

Time (CDT) Temp. Heat Index Dew Point Humidity Pressure Visibility Wind Dir Wind Speed Gust Speed Precip Events Conditions
12:15 AM 71.8 °F - 68.9 °F 91% 29.87 in 5.0 mi Calm Calm - N/A   Clear
12:35 AM 71.6 °F - 68.9 °F 91% 29.87 in 5.0 mi Calm Calm - N/A   Clear
12:55 AM 72.1 °F - 69.3 °F 91% 29.87 in 5.0 mi Calm Calm - N/A   Clear
1:15 AM 72.1 °F - 69.1 °F 90% 29.86 in 5.0 mi SSW 3.5 mph - N/A   Clear
1:35 AM 72.3 °F - 68.9 °F 89% 29.85 in 7.0 mi Calm Calm - N/A   Clear
1:55 AM 72.1 °F - 68.9 °F 89% 29.85 in 5.0 mi Calm Calm - N/A   Clear
2:15 AM 72.5 °F - 69.1 °F 89% 29.84 in 5.0 mi South 5.8 mph - N/A   Clear
2:35 AM 72.5 °F - 69.4 °F 90% 29.84 in 5.0 mi SSW 3.5 mph - N/A   Clear
3:15 AM 71.6 °F - 69.3 °F 92% 29.84 in 5.0 mi SSW 3.5 mph - N/A   Clear
3:35 AM 71.8 °F - 69.1 °F 91% 29.83 in 5.0 mi SSW 5.8 mph - N/A   Clear
3:55 AM 71.6 °F - 69.1 °F 92% 29.83 in 5.0 mi SSW 4.6 mph - N/A   Clear
4:15 AM 70.7 °F - 68.4 °F 92% 29.83 in 4.0 mi South 3.5 mph - N/A   Clear
4:35 AM 70.7 °F - 68.9 °F 94% 29.84 in 4.0 mi Calm Calm - N/A   Scattered Clouds
4:55 AM 70.2 °F - 68.4 °F 94% 29.83 in 3.0 mi South 3.5 mph - N/A   Scattered Clouds
5:15 AM 70.0 °F - 68.4 °F 95% 29.84 in 4.0 mi SSW 3.5 mph - N/A   Clear
5:55 AM 70.3 °F - 68.5 °F 94% 29.84 in 4.0 mi South 4.6 mph - N/A   Scattered Clouds
6:15 AM 70.7 °F - 68.4 °F 92% 29.84 in 5.0 mi SSW 3.5 mph - N/A   Scattered Clouds
6:35 AM 71.6 °F - 68.5 °F 90% 29.84 in 7.0 mi SSW 4.6 mph - N/A   Clear
6:55 AM 72.5 °F - 68.9 °F 88% 29.85 in 10.0 mi SW 3.5 mph - N/A   Clear
7:15 AM 72.7 °F - 68.9 °F 88% 29.85 in 10.0 mi WSW 5.8 mph - N/A   Clear
7:35 AM 73.6 °F - 69.3 °F 86% 29.85 in 10.0 mi SW 3.5 mph - N/A   Clear
7:55 AM 75.2 °F - 69.8 °F 83% 29.84 in 10.0 mi SW 3.5 mph - N/A   Clear
8:15 AM 76.5 °F - 69.8 °F 80% 29.85 in 10.0 mi WSW 3.5 mph - N/A   Clear
8:35 AM 77.7 °F - 69.6 °F 76% 29.84 in 10.0 mi WSW 5.8 mph - N/A   Clear
8:55 AM 78.8 °F - 69.8 °F 74% 29.84 in 10.0 mi SW 4.6 mph - N/A   Clear
9:15 AM 79.5 °F - 70.0 °F 72% 29.84 in 10.0 mi SW 5.8 mph - N/A   Clear
9:35 AM 80.8 °F 84.4 °F 70.5 °F 71% 29.84 in 10.0 mi WSW 4.6 mph - N/A   Clear
9:55 AM 81.5 °F 85.7 °F 71.2 °F 71% 29.85 in 10.0 mi SW 6.9 mph - N/A   Scattered Clouds
10:15 AM 80.1 °F 83.7 °F 71.4 °F 75% 29.85 in 10.0 mi SSW 5.8 mph - N/A   Scattered Clouds
10:35 AM 81.1 °F 85.2 °F 71.2 °F 72% 29.85 in 10.0 mi SW 6.9 mph - N/A   Scattered Clouds
11:15 AM 83.3 °F 87.9 °F 71.1 °F 66% 29.86 in 10.0 mi WSW 6.9 mph - N/A   Scattered Clouds
11:35 AM 83.3 °F 87.9 °F 70.7 °F 66% 29.86 in 10.0 mi WSW 5.8 mph - N/A   Scattered Clouds
11:55 AM 83.5 °F 87.7 °F 70.0 °F 64% 29.86 in 10.0 mi West 6.9 mph - N/A   Scattered Clouds
12:15 PM 84.2 °F 88.7 °F 70.2 °F 63% 29.85 in 10.0 mi WSW 5.8 mph - N/A   Clear
12:35 PM 85.3 °F 90.1 °F 70.3 °F 61% 29.84 in 10.0 mi WNW 4.6 mph - N/A   Clear
12:55 PM 86.5 °F 90.7 °F 69.3 °F 56% 29.84 in 10.0 mi West 5.8 mph - N/A   Scattered Clouds
1:15 PM 87.1 °F 91.3 °F 69.3 °F 55% 29.84 in 10.0 mi WSW 5.8 mph - N/A   Clear
1:35 PM 88.2 °F 92.5 °F 68.9 °F 53% 29.83 in 10.0 mi NNW 6.9 mph - N/A Thunderstorm Clear
1:55 PM 81.9 °F 86.2 °F 71.1 °F 70% 29.84 in 10.0 mi NW 5.8 mph - N/A Rain , Thunderstorm Light Thunderstorms and Rain
2:15 PM 76.6 °F - 72.0 °F 85% 29.86 in 2.0 mi West 4.6 mph - 0.11 in Rain , Thunderstorm Heavy Thunderstorms and Rain
2:35 PM 72.9 °F - 68.0 °F 85% 29.85 in 5.0 mi West 8.1 mph 18.4 mph 0.16 in Rain , Thunderstorm Light Thunderstorms and Rain
2:55 PM 74.8 °F - 68.5 °F 81% 29.85 in 10.0 mi Calm Calm - 0.16 in   Clear
3:15 PM 79.9 °F - 67.5 °F 66% 29.85 in 10.0 mi Calm Calm - N/A   Clear
3:35 PM 82.0 °F 85.5 °F 69.3 °F 65% 29.84 in 10.0 mi WSW 4.6 mph - N/A   Clear
3:55 PM 83.3 °F 87.6 °F 70.3 °F 65% 29.83 in 10.0 mi Calm Calm - N/A   Clear
4:15 PM 84.6 °F 89.4 °F 70.9 °F 63% 29.84 in 10.0 mi Calm Calm - N/A   Clear
4:55 PM 84.6 °F 88.8 °F 69.6 °F 61% 29.84 in 10.0 mi Calm Calm - N/A   Clear
5:15 PM 83.8 °F 88.1 °F 70.2 °F 63% 29.84 in 10.0 mi Calm Calm - N/A   Scattered Clouds
5:35 PM 85.1 °F 88.5 °F 68.2 °F 57% 29.84 in 10.0 mi NNW 5.8 mph - N/A   Scattered Clouds
5:55 PM 84.4 °F 87.3 °F 67.5 °F 57% 29.84 in 10.0 mi NW 3.5 mph - N/A   Clear
6:15 PM 85.1 °F 86.4 °F 64.2 °F 49% 29.84 in 10.0 mi NNW 6.9 mph - N/A   Clear
6:35 PM 84.4 °F 85.6 °F 63.9 °F 50% 29.85 in 10.0 mi NNW 4.6 mph - N/A   Clear
6:55 PM 84.0 °F 85.4 °F 64.2 °F 51% 29.86 in 10.0 mi NNW 4.6 mph - N/A   Clear
7:15 PM 81.0 °F 83.8 °F 68.0 °F 65% 29.87 in 10.0 mi ENE 13.8 mph 19.6 mph N/A   Scattered Clouds
7:35 PM 79.0 °F - 67.6 °F 68% 29.89 in 10.0 mi NE 12.7 mph - N/A   Mostly Cloudy
7:55 PM 77.9 °F - 68.0 °F 71% 29.90 in 10.0 mi NE 9.2 mph - N/A   Mostly Cloudy
8:15 PM 76.5 °F - 68.5 °F 76% 29.90 in 10.0 mi NNE 8.1 mph - N/A   Scattered Clouds
8:35 PM 75.4 °F - 67.8 °F 77% 29.91 in 10.0 mi NNE 15.0 mph 18.4 mph N/A   Scattered Clouds
8:55 PM 74.3 °F - 67.5 °F 79% 29.92 in 7.0 mi NE 13.8 mph 17.3 mph N/A   Clear
9:15 PM 72.7 °F - 65.8 °F 79% 29.93 in 10.0 mi NE 10.4 mph - N/A   Clear
9:55 PM 71.1 °F - 63.5 °F 77% 29.95 in 10.0 mi NE 10.4 mph - N/A   Mostly Cloudy
10:15 PM 70.5 °F - 63.0 °F 77% 29.96 in 10.0 mi NE 6.9 mph - N/A   Scattered Clouds
10:35 PM 69.8 °F - 62.6 °F 78% 29.96 in 10.0 mi NE 5.8 mph - N/A   Clear
10:55 PM 69.4 °F - 62.6 °F 79% 29.96 in 10.0 mi NE 4.6 mph - N/A   Clear
11:15 PM 69.1 °F - 62.6 °F 80% 29.96 in 10.0 mi NNE 4.6 mph - N/A   Clear
11:35 PM 68.7 °F - 62.4 °F 80% 29.96 in 10.0 mi NNE 5.8 mph - N/A   Clear
11:55 PM 68.0 °F - 62.2 °F 82% 29.97 in 10.0 mi NE 3.5 mph - N/A   Clear